Regional Weather Roundup
Issued by NWS Green Bay, WI

Home | Current Version | Previous Version | Graphics & Text | Print | Product List | Glossary Off
Versions: 1 2 3 4 5 6 7 8 9 10 11 12 13 14 15 16 17 18 19 20 21 22 23 24 25 26 27 28 29 30 31 32 33 34 35 36 37 38 39 40 41 42 43 44 45 46 47 48 49 50

000
ASUS43 KGRB 261911
RWRGRB

NORTH-CENTRAL AND NORTHEAST WISCONSIN REGIONAL WEATHER ROUNDUP
NATIONAL WEATHER SERVICE GREEN BAY WI
200 PM CDT MON JUN 26 2017

WIZ005-009-010>012-018-019-262000-
NORTH CENTRAL WISCONSIN

CITY           SKY/WX    TMP DP  RH WIND       PRES   REMARKS
IRONWOOD       MOSUNNY   61  46  57 NW9       30.08F
MANITOWISH WTR CLOUDY    58  47  67 N6        30.08F
ARBOR VITAE    PTSUNNY   59  48  67 N6        30.08F
EAGLE RIVER    CLOUDY    53  42  68 N8        30.08R
LAND O LAKES   CLOUDY    55  46  72 N9        30.09S
RHINELANDER    CLOUDY    55  45  68 N9G22     30.09R
PHILLIPS       PTSUNNY   60  46  58 N12G18    30.09F
ANTIGO         CLOUDY    54  49  83 NW15      30.06S
TOMAHAWK       NOT AVBL
MERRILL        CLOUDY    58  45  62 N17       30.09S
$$

WIZ013-073-262000-
NORTHEAST WISCONSIN

CITY           SKY/WX    TMP DP  RH WIND       PRES   REMARKS
IRON MOUNTAIN  CLOUDY    57  51  80 N10       30.01S
MARINETTE      LGT RAIN  58  51  78 N7        30.00F
OCONTO         CLOUDY    56  51  82 NW8       30.01S
$$

WIZ017-030-035>037-045-262000-
CENTRAL WISCONSIN

CITY           SKY/WX    TMP DP  RH WIND       PRES   REMARKS
MEDFORD        CLOUDY    58  44  60 N13       30.10S
WAUSAU         CLOUDY    58  45  62 N13G25    30.06F
MOSINEE        CLOUDY    57  46  67 N14       30.10S
MARSHFIELD     CLOUDY    61  45  55 N16G26    30.10R
WISC RAPIDS    CLOUDY    60  45  57 N13       30.10S
STEVENS POINT  CLOUDY    56  43  62 NW16G22   30.08F
WAUPACA        LGT RAIN  59  47  64 NW13G20   30.06S
SHAWANO        PTSUNNY   62  50  65 NW8       30.03S
CLINTONVILLE   CLOUDY    59  45  58 NW12      30.03F
WAUTOMA        CLOUDY    61  45  55 NW15G23   30.08F
$$

WIZ038-039-048-051-262000-
FOX VALLEY

CITY           SKY/WX    TMP DP  RH WIND       PRES   REMARKS
NWS GREEN BAY  PTSUNNY   62  50  64 W13G24    30.03F
APPLETON       PTSUNNY   59  41  51 W17       30.03F
OSHKOSH        CLOUDY    60  45  57 NW16      30.04F
FOND DU LAC    CLOUDY    62  43  49 W21G30    30.05F
$$

WIZ022-050-052-262000-
EAST CENTRAL WISCONSIN

CITY           SKY/WX    TMP DP  RH WIND       PRES   REMARKS
EPHRAIM        CLOUDY    57  49  76 NW8       29.98F
WASHINGTON ISL CLOUDY    57  52  82 N10       29.97F
STURGEON BAY     N/A     58  49  72 W12         N/A
MANITOWOC      CLOUDY    58  45  62 NW13      30.03S
SHEBOYGAN      CLOUDY    58  46  64 NW18      30.04S
$$

LMZ563-521-522-541>543-262000-
LAKESHORE

STATION/POSITION TIME  TEMP    WIND        PRES    VSBY  WAVE
                       AIR SEA DIR/SP/G                  HT/PER
                 (UTC) (F)     (DEG/KT/KT) (MB)    (MI)  (FT/S)
SHEBOYGAN LKSHOR 1900   54     330/ 11/ 13 1017.1R
KEWAUNEE LKSHORE 1848   54     260/  6/ 10 1016.0S
NORTHPORT PIER   1840   57     300/  6/ 13 1015.2S
N MID LAKE BUOY  1850   56 56  260/  6/  8 1015.3F         1/ 3
S GREEN BAY BUOY 1900   58     280/ 12/ 16 1015.7
CHAMBERS ISLAND  1840   58     270/  4/  9 1015.2F
MENOMINEE LKSHOR 1848          320/  6/  7 1015.0S
$$




USA.gov is the U.S. government's official web portal to all federal, state and local government web resources and services.